Wetterdaten: Dienstag, 01.03.2016
Datum Zeit Temperatur Luftfeuchte Luftdruck Regen Wind Richtung Richtung Sonnenschein ET UV Solar Taupunkt Windchill Windben
01.03.2016 00:00 -0,9 C 74 % 1021,8 hPa 0,0 l/m 0,2 km/h (0 Bft) NO 48 0 min 0,000 mm 0,0 UV-I 0 W/m -4,9 C -0,9 C 3,2 km/h (1 Bft)
01.03.2016 00:05 -0,9 C 74 % 1021,9 hPa 0,0 l/m 0,0 km/h (0 Bft) NO 48 0 min 0,000 mm 0,0 UV-I 0 W/m -4,9 C -0,9 C 0,0 km/h (0 Bft)
01.03.2016 00:10 -0,9 C 74 % 1021,9 hPa 0,0 l/m 0,0 km/h (0 Bft) NO 48 0 min 0,000 mm 0,0 UV-I 0 W/m -4,9 C -0,9 C 0,0 km/h (0 Bft)
01.03.2016 00:15 -0,9 C 74 % 1021,8 hPa 0,0 l/m 0,4 km/h (0 Bft) NO 46 0 min 0,000 mm 0,0 UV-I 0 W/m -4,9 C -0,9 C 3,2 km/h (1 Bft)
01.03.2016 00:20 -1,1 C 74 % 1021,8 hPa 0,0 l/m 0,0 km/h (0 Bft) NO 46 0 min 0,000 mm 0,0 UV-I 0 W/m -5,1 C -1,1 C 0,0 km/h (0 Bft)
01.03.2016 00:25 -1,1 C 74 % 1021,7 hPa 0,0 l/m 0,1 km/h (0 Bft) NO 46 0 min 0,000 mm 0,0 UV-I 0 W/m -5,1 C -1,1 C 1,6 km/h (1 Bft)
01.03.2016 00:30 -1,2 C 74 % 1021,7 hPa 0,0 l/m 0,0 km/h (0 Bft) NO 46 0 min 0,000 mm 0,0 UV-I 0 W/m -5,2 C -1,2 C 1,6 km/h (1 Bft)
01.03.2016 00:35 -1,3 C 75 % 1021,7 hPa 0,0 l/m 0,0 km/h (0 Bft) NO 46 0 min 0,000 mm 0,0 UV-I 0 W/m -5,1 C -1,3 C 0,0 km/h (0 Bft)
01.03.2016 00:40 -1,3 C 75 % 1021,7 hPa 0,0 l/m 0,0 km/h (0 Bft) NO 46 0 min 0,000 mm 0,0 UV-I 0 W/m -5,1 C -1,3 C 0,0 km/h (0 Bft)
01.03.2016 00:45 -1,3 C 77 % 1021,9 hPa 0,0 l/m 0,6 km/h (0 Bft) W-SW 249 0 min 0,000 mm 0,0 UV-I 0 W/m -4,8 C -1,3 C 4,8 km/h (1 Bft)
01.03.2016 00:50 -1,3 C 76 % 1022,1 hPa 0,0 l/m 3,7 km/h (1 Bft) W 271 0 min 0,000 mm 0,0 UV-I 0 W/m -5,0 C -1,3 C 8,0 km/h (2 Bft)
01.03.2016 00:55 -1,4 C 76 % 1021,9 hPa 0,0 l/m 0,7 km/h (0 Bft) W 271 0 min 0,000 mm 0,0 UV-I 0 W/m -5,1 C -1,4 C 3,2 km/h (1 Bft)
01.03.2016 01:00 -1,6 C 77 % 1021,9 hPa 0,0 l/m 1,1 km/h (1 Bft) W 271 0 min 0,000 mm 0,0 UV-I 0 W/m -5,1 C -1,6 C 3,2 km/h (1 Bft)
01.03.2016 01:05 -1,7 C 77 % 1021,9 hPa 0,0 l/m 1,6 km/h (1 Bft) NW 308 0 min 0,000 mm 0,0 UV-I 0 W/m -5,2 C -1,7 C 3,2 km/h (1 Bft)
01.03.2016 01:10 -1,8 C 78 % 1021,8 hPa 0,0 l/m 0,1 km/h (0 Bft) NW 308 0 min 0,000 mm 0,0 UV-I 0 W/m -5,1 C -1,8 C 1,6 km/h (1 Bft)
01.03.2016 01:15 -1,8 C 78 % 1021,8 hPa 0,0 l/m 0,0 km/h (0 Bft) NW 308 0 min 0,000 mm 0,0 UV-I 0 W/m -5,1 C -1,8 C 0,0 km/h (0 Bft)
01.03.2016 01:20 -1,9 C 77 % 1021,7 hPa 0,0 l/m 0,0 km/h (0 Bft) NW 308 0 min 0,000 mm 0,0 UV-I 0 W/m -5,4 C -1,9 C 0,0 km/h (0 Bft)
01.03.2016 01:25 -1,9 C 78 % 1021,7 hPa 0,0 l/m 0,0 km/h (0 Bft) NW 308 0 min 0,000 mm 0,0 UV-I 0 W/m -5,2 C -1,9 C 0,0 km/h (0 Bft)
01.03.2016 01:30 -2,1 C 78 % 1021,8 hPa 0,0 l/m 0,0 km/h (0 Bft) NW 308 0 min 0,000 mm 0,0 UV-I 0 W/m -5,4 C -2,1 C 0,0 km/h (0 Bft)
01.03.2016 01:35 -2,2 C 79 % 1021,9 hPa 0,0 l/m 0,0 km/h (0 Bft) NW 308 0 min 0,000 mm 0,0 UV-I 0 W/m -5,3 C -2,2 C 0,0 km/h (0 Bft)
01.03.2016 01:40 -2,2 C 81 % 1021,9 hPa 0,0 l/m 0,3 km/h (0 Bft) NW 308 0 min 0,000 mm 0,0 UV-I 0 W/m -5,0 C -2,2 C 3,2 km/h (1 Bft)
01.03.2016 01:45 -2,1 C 80 % 1021,8 hPa 0,0 l/m 0,1 km/h (0 Bft) NW 308 0 min 0,000 mm 0,0 UV-I 0 W/m -5,1 C -2,1 C 1,6 km/h (1 Bft)
01.03.2016 01:50 -2,1 C 79 % 1021,8 hPa 0,0 l/m 0,3 km/h (0 Bft) NW 308 0 min 0,000 mm 0,0 UV-I 0 W/m -5,2 C -2,1 C 1,6 km/h (1 Bft)
01.03.2016 01:55 -2,1 C 79 % 1021,8 hPa 0,0 l/m 0,0 km/h (0 Bft) NW 308 0 min 0,000 mm 0,0 UV-I 0 W/m -5,2 C -2,1 C 0,0 km/h (0 Bft)
01.03.2016 02:00 -2,2 C 80 % 1021,9 hPa 0,0 l/m 2,0 km/h (1 Bft) W 259 0 min 0,000 mm 0,0 UV-I 0 W/m -5,2 C -2,2 C 6,4 km/h (2 Bft)
01.03.2016 02:05 -2,2 C 81 % 1022,1 hPa 0,0 l/m 2,6 km/h (1 Bft) W 278 0 min 0,000 mm 0,0 UV-I 0 W/m -5,0 C -2,2 C 8,0 km/h (2 Bft)
01.03.2016 02:10 -2,3 C 80 % 1022,1 hPa 0,0 l/m 2,4 km/h (1 Bft) W 273 0 min 0,000 mm 0,0 UV-I 0 W/m -5,3 C -2,3 C 6,4 km/h (2 Bft)
01.03.2016 02:15 -2,3 C 80 % 1022,1 hPa 0,0 l/m 1,8 km/h (1 Bft) W 279 0 min 0,000 mm 0,0 UV-I 0 W/m -5,3 C -2,3 C 4,8 km/h (1 Bft)
01.03.2016 02:20 -2,3 C 81 % 1022,1 hPa 0,0 l/m 0,7 km/h (0 Bft) W 279 0 min 0,000 mm 0,0 UV-I 0 W/m -5,1 C -2,3 C 3,2 km/h (1 Bft)
01.03.2016 02:25 -2,3 C 80 % 1022,2 hPa 0,0 l/m 0,0 km/h (0 Bft) W 279 0 min 0,000 mm 0,0 UV-I 0 W/m -5,3 C -2,3 C 0,0 km/h (0 Bft)
01.03.2016 02:30 -2,3 C 80 % 1022,1 hPa 0,0 l/m 0,0 km/h (0 Bft) W 279 0 min 0,000 mm 0,0 UV-I 0 W/m -5,3 C -2,3 C 0,0 km/h (0 Bft)
01.03.2016 02:35 -2,4 C 81 % 1022,0 hPa 0,0 l/m 0,2 km/h (0 Bft) W 279 0 min 0,000 mm 0,0 UV-I 0 W/m -5,2 C -2,4 C 3,2 km/h (1 Bft)
01.03.2016 02:40 -2,5 C 81 % 1022,0 hPa 0,0 l/m 0,5 km/h (0 Bft) W 279 0 min 0,000 mm 0,0 UV-I 0 W/m -5,3 C -2,5 C 3,2 km/h (1 Bft)
01.03.2016 02:45 -2,6 C 81 % 1022,0 hPa 0,0 l/m 0,0 km/h (0 Bft) W 279 0 min 0,000 mm 0,0 UV-I 0 W/m -5,4 C -2,6 C 0,0 km/h (0 Bft)
01.03.2016 02:50 -2,7 C 80 % 1022,0 hPa 0,0 l/m 0,0 km/h (0 Bft) W 279 0 min 0,000 mm 0,0 UV-I 0 W/m -5,7 C -2,7 C 0,0 km/h (0 Bft)
01.03.2016 02:55 -2,8 C 81 % 1021,9 hPa 0,0 l/m 0,0 km/h (0 Bft) W 279 0 min 0,000 mm 0,0 UV-I 0 W/m -5,6 C -2,8 C 0,0 km/h (0 Bft)
01.03.2016 03:00 -2,9 C 82 % 1021,9 hPa 0,0 l/m 1,2 km/h (1 Bft) W 279 0 min 0,000 mm 0,0 UV-I 0 W/m -5,5 C -2,9 C 3,2 km/h (1 Bft)
01.03.2016 03:05 -2,9 C 82 % 1021,9 hPa 0,0 l/m 0,3 km/h (0 Bft) W 279 0 min 0,000 mm 0,0 UV-I 0 W/m -5,5 C -2,9 C 3,2 km/h (1 Bft)
01.03.2016 03:10 -2,9 C 82 % 1021,8 hPa 0,0 l/m 2,1 km/h (1 Bft) W 279 0 min 0,000 mm 0,0 UV-I 0 W/m -5,5 C -2,9 C 4,8 km/h (1 Bft)
01.03.2016 03:15 -2,9 C 83 % 1021,8 hPa 0,0 l/m 1,7 km/h (1 Bft) W 279 0 min 0,000 mm 0,0 UV-I 0 W/m -5,4 C -2,9 C 3,2 km/h (1 Bft)
01.03.2016 03:20 -2,9 C 83 % 1021,7 hPa 0,0 l/m 1,7 km/h (1 Bft) W 279 0 min 0,000 mm 0,0 UV-I 0 W/m -5,4 C -2,9 C 6,4 km/h (2 Bft)
01.03.2016 03:25 -3,0 C 83 % 1021,7 hPa 0,0 l/m 1,7 km/h (1 Bft) W 279 0 min 0,000 mm 0,0 UV-I 0 W/m -5,5 C -3,0 C 3,2 km/h (1 Bft)
01.03.2016 03:30 -3,1 C 83 % 1021,7 hPa 0,0 l/m 1,6 km/h (1 Bft) W 279 0 min 0,000 mm 0,0 UV-I 0 W/m -5,6 C -3,1 C 3,2 km/h (1 Bft)
01.03.2016 03:35 -3,1 C 83 % 1021,6 hPa 0,0 l/m 0,5 km/h (0 Bft) W 279 0 min 0,000 mm 0,0 UV-I 0 W/m -5,6 C -3,1 C 3,2 km/h (1 Bft)
01.03.2016 03:40 -3,1 C 83 % 1021,6 hPa 0,0 l/m 0,5 km/h (0 Bft) W 279 0 min 0,000 mm 0,0 UV-I 0 W/m -5,6 C -3,1 C 3,2 km/h (1 Bft)
01.03.2016 03:45 -3,1 C 83 % 1021,7 hPa 0,0 l/m 0,5 km/h (0 Bft) W 279 0 min 0,000 mm 0,0 UV-I 0 W/m -5,6 C -3,1 C 3,2 km/h (1 Bft)
01.03.2016 03:50 -3,2 C 84 % 1021,8 hPa 0,0 l/m 1,9 km/h (1 Bft) W 279 0 min 0,000 mm 0,0 UV-I 0 W/m -5,5 C -3,2 C 6,4 km/h (2 Bft)
01.03.2016 03:55 -3,2 C 84 % 1021,8 hPa 0,0 l/m 0,7 km/h (0 Bft) W 279 0 min 0,000 mm 0,0 UV-I 0 W/m -5,5 C -3,2 C 3,2 km/h (1 Bft)
01.03.2016 04:00 -3,2 C 84 % 1021,9 hPa 0,0 l/m 1,3 km/h (1 Bft) W 279 0 min 0,000 mm 0,0 UV-I 0 W/m -5,5 C -3,2 C 4,8 km/h (1 Bft)
01.03.2016 04:05 -3,2 C 84 % 1021,9 hPa 0,0 l/m 1,6 km/h (1 Bft) W 279 0 min 0,000 mm 0,0 UV-I 0 W/m -5,5 C -3,2 C 4,8 km/h (1 Bft)
01.03.2016 04:10 -3,3 C 83 % 1022,0 hPa 0,0 l/m 0,1 km/h (0 Bft) W 279 0 min 0,000 mm 0,0 UV-I 0 W/m -5,8 C -3,3 C 1,6 km/h (1 Bft)
01.03.2016 04:15 -3,3 C 84 % 1022,1 hPa 0,0 l/m 0,2 km/h (0 Bft) W 279 0 min 0,000 mm 0,0 UV-I 0 W/m -5,6 C -3,3 C 1,6 km/h (1 Bft)
01.03.2016 04:20 -3,3 C 84 % 1022,1 hPa 0,0 l/m 1,0 km/h (0 Bft) W 279 0 min 0,000 mm 0,0 UV-I 0 W/m -5,6 C -3,3 C 4,8 km/h (1 Bft)
01.03.2016 04:25 -3,4 C 84 % 1022,1 hPa 0,0 l/m 2,0 km/h (1 Bft) W 280 0 min 0,000 mm 0,0 UV-I 0 W/m -5,7 C -3,4 C 6,4 km/h (2 Bft)
01.03.2016 04:30 -3,4 C 84 % 1022,1 hPa 0,0 l/m 1,8 km/h (1 Bft) W 280 0 min 0,000 mm 0,0 UV-I 0 W/m -5,7 C -3,4 C 3,2 km/h (1 Bft)
01.03.2016 04:35 -3,5 C 84 % 1022,0 hPa 0,0 l/m 1,0 km/h (0 Bft) W 280 0 min 0,000 mm 0,0 UV-I 0 W/m -5,8 C -3,5 C 3,2 km/h (1 Bft)
01.03.2016 04:40 -3,6 C 84 % 1022,0 hPa 0,0 l/m 0,4 km/h (0 Bft) W 280 0 min 0,000 mm 0,0 UV-I 0 W/m -5,9 C -3,6 C 3,2 km/h (1 Bft)
01.03.2016 04:45 -3,7 C 85 % 1021,9 hPa 0,0 l/m 0,3 km/h (0 Bft) W 280 0 min 0,000 mm 0,0 UV-I 0 W/m -5,8 C -3,7 C 3,2 km/h (1 Bft)
01.03.2016 04:50 -3,8 C 84 % 1021,9 hPa 0,0 l/m 0,0 km/h (0 Bft) W 280 0 min 0,000 mm 0,0 UV-I 0 W/m -6,1 C -3,8 C 0,0 km/h (0 Bft)
01.03.2016 04:55 -3,9 C 84 % 1021,8 hPa 0,0 l/m 0,0 km/h (0 Bft) W 280 0 min 0,000 mm 0,0 UV-I 0 W/m -6,2 C -3,9 C 0,0 km/h (0 Bft)
01.03.2016 05:00 -4,0 C 84 % 1021,9 hPa 0,0 l/m 0,0 km/h (0 Bft) W 280 0 min 0,000 mm 0,0 UV-I 0 W/m -6,3 C -4,0 C 0,0 km/h (0 Bft)
01.03.2016 05:05 -4,2 C 84 % 1022,0 hPa 0,0 l/m 0,0 km/h (0 Bft) W 280 0 min 0,000 mm 0,0 UV-I 0 W/m -6,5 C -4,2 C 1,6 km/h (1 Bft)
01.03.2016 05:10 -4,3 C 84 % 1021,9 hPa 0,0 l/m 0,0 km/h (0 Bft) W 280 0 min 0,000 mm 0,0 UV-I 0 W/m -6,6 C -4,3 C 1,6 km/h (1 Bft)
01.03.2016 05:15 -4,4 C 85 % 1021,9 hPa 0,0 l/m 0,0 km/h (0 Bft) W 280 0 min 0,000 mm 0,0 UV-I 0 W/m -6,5 C -4,4 C 0,0 km/h (0 Bft)
01.03.2016 05:20 -4,6 C 86 % 1022,0 hPa 0,0 l/m 0,0 km/h (0 Bft) W 280 0 min 0,000 mm 0,0 UV-I 0 W/m -6,6 C -4,6 C 0,0 km/h (0 Bft)
01.03.2016 05:25 -4,6 C 86 % 1022,1 hPa 0,0 l/m 0,0 km/h (0 Bft) W 280 0 min 0,000 mm 0,0 UV-I 0 W/m -6,6 C -4,6 C 0,0 km/h (0 Bft)
01.03.2016 05:30 -4,7 C 86 % 1022,2 hPa 0,0 l/m 0,0 km/h (0 Bft) W 280 0 min 0,000 mm 0,0 UV-I 0 W/m -6,7 C -4,7 C 0,0 km/h (0 Bft)
01.03.2016 05:35 -4,8 C 86 % 1022,4 hPa 0,0 l/m 0,0 km/h (0 Bft) W 280 0 min 0,000 mm 0,0 UV-I 0 W/m -6,8 C -4,8 C 0,0 km/h (0 Bft)
01.03.2016 05:40 -4,9 C 86 % 1022,3 hPa 0,0 l/m 0,0 km/h (0 Bft) W 280 0 min 0,000 mm 0,0 UV-I 0 W/m -6,9 C -4,9 C 0,0 km/h (0 Bft)
01.03.2016 05:45 -4,9 C 86 % 1022,1 hPa 0,0 l/m 0,0 km/h (0 Bft) W 280 0 min 0,000 mm 0,0 UV-I 0 W/m -6,9 C -4,9 C 0,0 km/h (0 Bft)
01.03.2016 05:50 -5,0 C 87 % 1022,2 hPa 0,0 l/m 0,0 km/h (0 Bft) W 280 0 min 0,000 mm 0,0 UV-I 0 W/m -6,8 C -5,0 C 0,0 km/h (0 Bft)
01.03.2016 05:55 -5,0 C 87 % 1022,2 hPa 0,0 l/m 0,0 km/h (0 Bft) W 280 0 min 0,000 mm 0,0 UV-I 0 W/m -6,8 C -5,0 C 0,0 km/h (0 Bft)
01.03.2016 06:00 -5,0 C 88 % 1022,2 hPa 0,0 l/m 0,0 km/h (0 Bft) W 280 0 min 0,000 mm 0,0 UV-I 0 W/m -6,7 C -5,0 C 0,0 km/h (0 Bft)
01.03.2016 06:05 -5,0 C 87 % 1022,2 hPa 0,0 l/m 0,0 km/h (0 Bft) W 280 0 min 0,000 mm 0,0 UV-I 0 W/m -6,8 C -5,0 C 0,0 km/h (0 Bft)
01.03.2016 06:10 -5,0 C 87 % 1022,1 hPa 0,0 l/m 0,0 km/h (0 Bft) W 280 0 min 0,000 mm 0,0 UV-I 0 W/m -6,8 C -5,0 C 0,0 km/h (0 Bft)
01.03.2016 06:15 -5,1 C 87 % 1021,8 hPa 0,0 l/m 0,0 km/h (0 Bft) W 280 0 min 0,000 mm 0,0 UV-I 0 W/m -6,9 C -5,1 C 0,0 km/h (0 Bft)
01.03.2016 06:20 -5,2 C 87 % 1021,8 hPa 0,0 l/m 0,0 km/h (0 Bft) W 280 0 min 0,000 mm 0,0 UV-I 0 W/m -7,0 C -5,2 C 0,0 km/h (0 Bft)
01.03.2016 06:25 -5,2 C 87 % 1021,6 hPa 0,0 l/m 0,0 km/h (0 Bft) W 280 0 min 0,000 mm 0,0 UV-I 0 W/m -7,0 C -5,2 C 0,0 km/h (0 Bft)
01.03.2016 06:30 -5,3 C 87 % 1021,7 hPa 0,0 l/m 0,0 km/h (0 Bft) W 280 0 min 0,000 mm 0,0 UV-I 0 W/m -7,1 C -5,3 C 0,0 km/h (0 Bft)
01.03.2016 06:35 -5,4 C 87 % 1021,7 hPa 0,0 l/m 0,0 km/h (0 Bft) W 280 0 min 0,000 mm 0,0 UV-I 0 W/m -7,2 C -5,4 C 0,0 km/h (0 Bft)
01.03.2016 06:40 -5,6 C 87 % 1021,8 hPa 0,0 l/m 0,0 km/h (0 Bft) W 280 0 min 0,000 mm 0,0 UV-I 0 W/m -7,4 C -5,6 C 0,0 km/h (0 Bft)
01.03.2016 06:45 -5,7 C 87 % 1021,7 hPa 0,0 l/m 0,0 km/h (0 Bft) W 280 0 min 0,000 mm 0,0 UV-I 0 W/m -7,5 C -5,7 C 0,0 km/h (0 Bft)
01.03.2016 06:50 -5,7 C 87 % 1021,8 hPa 0,0 l/m 0,0 km/h (0 Bft) W 280 0 min 0,000 mm 0,0 UV-I 0 W/m -7,5 C -5,7 C 0,0 km/h (0 Bft)
01.03.2016 06:55 -5,6 C 89 % 1021,9 hPa 0,0 l/m 0,3 km/h (0 Bft) W 280 0 min 0,000 mm 0,0 UV-I 0 W/m -7,1 C -5,6 C 1,6 km/h (1 Bft)
01.03.2016 07:00 -5,6 C 89 % 1021,8 hPa 0,0 l/m 0,2 km/h (0 Bft) W 280 0 min 0,000 mm 0,0 UV-I 0 W/m -7,1 C -5,6 C 1,6 km/h (1 Bft)
01.03.2016 07:05 -5,6 C 89 % 1021,9 hPa 0,0 l/m 0,2 km/h (0 Bft) W 280 0 min 0,000 mm 0,0 UV-I 0 W/m -7,1 C -5,6 C 1,6 km/h (1 Bft)
01.03.2016 07:10 -5,7 C 89 % 1022,0 hPa 0,0 l/m 0,0 km/h (0 Bft) W 280 0 min 0,000 mm 0,0 UV-I 0 W/m -7,2 C -5,7 C 1,6 km/h (1 Bft)
01.03.2016 07:15 -5,7 C 89 % 1022,1 hPa 0,0 l/m 0,4 km/h (0 Bft) W 280 0 min 0,000 mm 0,0 UV-I 5 W/m -7,2 C -5,7 C 3,2 km/h (1 Bft)
01.03.2016 07:20 -5,7 C 89 % 1022,1 hPa 0,0 l/m 0,1 km/h (0 Bft) W 280 0 min 0,000 mm 0,0 UV-I 8 W/m -7,2 C -5,7 C 1,6 km/h (1 Bft)
01.03.2016 07:25 -5,7 C 89 % 1022,1 hPa 0,0 l/m 0,7 km/h (0 Bft) W 280 0 min 0,000 mm 0,0 UV-I 11 W/m -7,2 C -5,7 C 4,8 km/h (1 Bft)
01.03.2016 07:30 -5,7 C 90 % 1022,1 hPa 0,0 l/m 0,9 km/h (0 Bft) W 280 0 min 0,000 mm 0,0 UV-I 15 W/m -7,1 C -5,7 C 3,2 km/h (1 Bft)
01.03.2016 07:35 -5,7 C 89 % 1022,1 hPa 0,0 l/m 0,6 km/h (0 Bft) W 280 0 min 0,000 mm 0,0 UV-I 20 W/m -7,2 C -5,7 C 3,2 km/h (1 Bft)
01.03.2016 07:40 -5,6 C 90 % 1022,1 hPa 0,0 l/m 0,4 km/h (0 Bft) W 280 0 min 0,000 mm 0,0 UV-I 25 W/m -7,0 C -5,6 C 1,6 km/h (1 Bft)
01.03.2016 07:45 -5,5 C 90 % 1022,0 hPa 0,0 l/m 0,6 km/h (0 Bft) W 280 0 min 0,000 mm 0,0 UV-I 33 W/m -6,9 C -5,5 C 3,2 km/h (1 Bft)
01.03.2016 07:50 -5,3 C 90 % 1021,9 hPa 0,0 l/m 0,3 km/h (0 Bft) W 280 0 min 0,000 mm 0,0 UV-I 43 W/m -6,7 C -5,3 C 3,2 km/h (1 Bft)
01.03.2016 07:55 -5,2 C 90 % 1021,9 hPa 0,0 l/m 0,0 km/h (0 Bft) W 280 0 min 0,000 mm 0,0 UV-I 55 W/m -6,6 C -5,2 C 0,0 km/h (0 Bft)
01.03.2016 08:00 -5,1 C 89 % 1021,9 hPa 0,0 l/m 0,0 km/h (0 Bft) W 280 5 min 0,000 mm 0,0 UV-I 68 W/m -6,6 C -5,1 C 0,0 km/h (0 Bft)
01.03.2016 08:05 -4,8 C 89 % 1021,9 hPa 0,0 l/m 0,0 km/h (0 Bft) W 280 5 min 0,000 mm 0,0 UV-I 83 W/m -6,3 C -4,8 C 1,6 km/h (1 Bft)
01.03.2016 08:10 -4,7 C 88 % 1021,8 hPa 0,0 l/m 0,0 km/h (0 Bft) W 280 5 min 0,000 mm 0,0 UV-I 99 W/m -6,4 C -4,7 C 0,0 km/h (0 Bft)
01.03.2016 08:15 -4,5 C 88 % 1021,8 hPa 0,0 l/m 0,0 km/h (0 Bft) W 280 5 min 0,000 mm 0,0 UV-I 116 W/m -6,2 C -4,5 C 0,0 km/h (0 Bft)
01.03.2016 08:20 -4,0 C 87 % 1021,7 hPa 0,0 l/m 0,0 km/h (0 Bft) W 280 5 min 0,000 mm 0,0 UV-I 136 W/m -5,8 C -4,0 C 0,0 km/h (0 Bft)
01.03.2016 08:25 -3,7 C 86 % 1021,7 hPa 0,0 l/m 0,0 km/h (0 Bft) W 280 5 min 0,000 mm 0,0 UV-I 156 W/m -5,7 C -3,7 C 0,0 km/h (0 Bft)
01.03.2016 08:30 -3,1 C 86 % 1021,7 hPa 0,0 l/m 0,0 km/h (0 Bft) W 280 5 min 0,000 mm 0,0 UV-I 177 W/m -5,1 C -3,1 C 0,0 km/h (0 Bft)
01.03.2016 08:35 -2,8 C 83 % 1021,6 hPa 0,0 l/m 0,0 km/h (0 Bft) W 280 5 min 0,000 mm 0,4 UV-I 194 W/m -5,3 C -2,8 C 0,0 km/h (0 Bft)
01.03.2016 08:40 -2,5 C 82 % 1021,6 hPa 0,0 l/m 0,0 km/h (0 Bft) W 280 5 min 0,000 mm 0,5 UV-I 210 W/m -5,1 C -2,5 C 0,0 km/h (0 Bft)
01.03.2016 08:45 -2,4 C 82 % 1021,6 hPa 0,0 l/m 0,0 km/h (0 Bft) W 280 5 min 0,000 mm 0,5 UV-I 224 W/m -5,0 C -2,4 C 0,0 km/h (0 Bft)
01.03.2016 08:50 -2,2 C 83 % 1021,6 hPa 0,0 l/m 0,0 km/h (0 Bft) W 280 5 min 0,000 mm 0,5 UV-I 229 W/m -4,7 C -2,2 C 0,0 km/h (0 Bft)
01.03.2016 08:55 -2,3 C 82 % 1021,6 hPa 0,0 l/m 0,0 km/h (0 Bft) W 280 5 min 0,000 mm 0,6 UV-I 232 W/m -4,9 C -2,3 C 0,0 km/h (0 Bft)
01.03.2016 09:00 -2,1 C 81 % 1021,8 hPa 0,0 l/m 0,0 km/h (0 Bft) W 279 5 min 0,000 mm 0,6 UV-I 237 W/m -4,9 C -2,1 C 0,0 km/h (0 Bft)
01.03.2016 09:05 -2,0 C 83 % 1021,9 hPa 0,0 l/m 0,0 km/h (0 Bft) W 279 5 min 0,051 mm 0,6 UV-I 226 W/m -4,5 C -2,0 C 0,0 km/h (0 Bft)
01.03.2016 09:10 -2,0 C 83 % 1021,9 hPa 0,0 l/m 0,0 km/h (0 Bft) W 279 5 min 0,000 mm 0,7 UV-I 196 W/m -4,5 C -2,0 C 0,0 km/h (0 Bft)
01.03.2016 09:15 -1,8 C 82 % 1021,9 hPa 0,0 l/m 0,0 km/h (0 Bft) N 0 5 min 0,000 mm 0,7 UV-I 234 W/m -4,5 C -1,8 C 0,0 km/h (0 Bft)
01.03.2016 09:20 -2,3 C 82 % 1021,9 hPa 0,0 l/m 0,0 km/h (0 Bft) W 270 5 min 0,000 mm 0,8 UV-I 269 W/m -4,9 C -2,3 C 1,6 km/h (1 Bft)
01.03.2016 09:25 -2,2 C 82 % 1021,8 hPa 0,0 l/m 0,0 km/h (0 Bft) W-SW 247 5 min 0,000 mm 0,8 UV-I 230 W/m -4,8 C -2,2 C 1,6 km/h (1 Bft)
01.03.2016 09:30 -1,8 C 82 % 1021,9 hPa 0,0 l/m 0,0 km/h (0 Bft) N 0 5 min 0,000 mm 0,8 UV-I 213 W/m -4,5 C -1,8 C 0,0 km/h (0 Bft)
01.03.2016 09:35 -1,6 C 81 % 1021,8 hPa 0,0 l/m 0,0 km/h (0 Bft) SW 230 5 min 0,000 mm 0,9 UV-I 239 W/m -4,4 C -1,6 C 0,0 km/h (0 Bft)
01.03.2016 09:40 -1,2 C 80 % 1021,6 hPa 0,0 l/m 0,0 km/h (0 Bft) S-SW 211 5 min 0,000 mm 0,9 UV-I 250 W/m -4,2 C -1,2 C 1,6 km/h (1 Bft)
01.03.2016 09:45 -1,3 C 80 % 1021,6 hPa 0,0 l/m 0,0 km/h (0 Bft) SW 220 5 min 0,000 mm 1,0 UV-I 254 W/m -4,3 C -1,3 C 0,0 km/h (0 Bft)
01.03.2016 09:50 -0,6 C 79 % 1021,5 hPa 0,0 l/m 0,0 km/h (0 Bft) S-SW 192 5 min 0,000 mm 1,1 UV-I 285 W/m -3,8 C -0,6 C 0,0 km/h (0 Bft)
01.03.2016 09:55 -0,2 C 77 % 1021,4 hPa 0,0 l/m 0,0 km/h (0 Bft) S-SW 200 5 min 0,000 mm 1,2 UV-I 323 W/m -3,7 C -0,2 C 0,0 km/h (0 Bft)
01.03.2016 10:00 0,2 C 75 % 1021,4 hPa 0,0 l/m 0,0 km/h (0 Bft) SW 229 5 min 0,000 mm 1,2 UV-I 353 W/m -3,7 C 0,2 C 0,0 km/h (0 Bft)
01.03.2016 10:05 0,8 C 73 % 1021,3 hPa 0,0 l/m 0,0 km/h (0 Bft) S-SW 196 5 min 0,076 mm 1,3 UV-I 360 W/m -3,5 C 0,8 C 1,6 km/h (1 Bft)
01.03.2016 10:10 1,2 C 70 % 1021,2 hPa 0,0 l/m 0,1 km/h (0 Bft) S-SW 192 5 min 0,000 mm 1,3 UV-I 377 W/m -3,7 C 1,2 C 1,6 km/h (1 Bft)
01.03.2016 10:15 1,5 C 70 % 1021,2 hPa 0,0 l/m 0,2 km/h (0 Bft) S 178 5 min 0,000 mm 1,4 UV-I 387 W/m -3,4 C 1,5 C 1,6 km/h (1 Bft)
01.03.2016 10:20 1,8 C 69 % 1021,1 hPa 0,0 l/m 0,1 km/h (0 Bft) S-SW 196 5 min 0,000 mm 1,4 UV-I 391 W/m -3,3 C 1,8 C 1,6 km/h (1 Bft)
01.03.2016 10:25 1,9 C 67 % 1021,1 hPa 0,0 l/m 0,3 km/h (0 Bft) S-SW 213 5 min 0,000 mm 1,4 UV-I 375 W/m -3,6 C 1,9 C 4,8 km/h (1 Bft)
01.03.2016 10:30 1,8 C 69 % 1021,0 hPa 0,0 l/m 0,6 km/h (0 Bft) S 190 5 min 0,000 mm 1,5 UV-I 372 W/m -3,3 C 1,8 C 6,4 km/h (2 Bft)
01.03.2016 10:35 1,7 C 67 % 1020,9 hPa 0,0 l/m 0,7 km/h (0 Bft) SW 222 5 min 0,000 mm 1,5 UV-I 378 W/m -3,8 C 1,7 C 4,8 km/h (1 Bft)
01.03.2016 10:40 1,9 C 69 % 1021,0 hPa 0,0 l/m 0,3 km/h (0 Bft) W 270 5 min 0,000 mm 1,6 UV-I 400 W/m -3,2 C 1,9 C 3,2 km/h (1 Bft)
01.03.2016 10:45 2,0 C 67 % 1020,9 hPa 0,0 l/m 0,3 km/h (0 Bft) S 190 5 min 0,000 mm 1,7 UV-I 401 W/m -3,5 C 2,0 C 3,2 km/h (1 Bft)
01.03.2016 10:50 1,9 C 66 % 1020,8 hPa 0,0 l/m 0,4 km/h (0 Bft) SW 216 5 min 0,000 mm 1,7 UV-I 412 W/m -3,8 C 1,9 C 4,8 km/h (1 Bft)
01.03.2016 10:55 2,2 C 66 % 1020,8 hPa 0,0 l/m 0,0 km/h (0 Bft) S-SW 211 5 min 0,000 mm 1,8 UV-I 424 W/m -3,5 C 2,2 C 1,6 km/h (1 Bft)
01.03.2016 11:00 2,8 C 65 % 1020,8 hPa 0,0 l/m 0,1 km/h (0 Bft) SW 218 5 min 0,000 mm 1,9 UV-I 440 W/m -3,1 C 2,8 C 3,2 km/h (1 Bft)
01.03.2016 11:05 2,1 C 65 % 1020,7 hPa 0,0 l/m 0,6 km/h (0 Bft) W-SW 242 5 min 0,152 mm 1,9 UV-I 444 W/m -3,8 C 2,1 C 3,2 km/h (1 Bft)
01.03.2016 11:10 1,7 C 66 % 1020,6 hPa 0,0 l/m 1,6 km/h (1 Bft) W-SW 254 5 min 0,000 mm 1,9 UV-I 445 W/m -4,0 C 1,7 C 4,8 km/h (1 Bft)
01.03.2016 11:15 1,9 C 66 % 1020,5 hPa 0,0 l/m 0,6 km/h (0 Bft) W-SW 250 5 min 0,000 mm 2,0 UV-I 449 W/m -3,8 C 1,9 C 4,8 km/h (1 Bft)
01.03.2016 11:20 2,5 C 64 % 1020,4 hPa 0,0 l/m 0,5 km/h (0 Bft) S-SW 204 5 min 0,000 mm 2,1 UV-I 466 W/m -3,6 C 2,5 C 4,8 km/h (1 Bft)
01.03.2016 11:25 2,4 C 64 % 1020,4 hPa 0,0 l/m 0,8 km/h (0 Bft) W 279 5 min 0,000 mm 2,0 UV-I 435 W/m -3,7 C 2,4 C 8,0 km/h (2 Bft)
01.03.2016 11:30 2,7 C 65 % 1020,4 hPa 0,0 l/m 0,2 km/h (0 Bft) W 269 5 min 0,000 mm 2,1 UV-I 444 W/m -3,2 C 2,7 C 3,2 km/h (1 Bft)
01.03.2016 11:35 2,8 C 64 % 1020,3 hPa 0,0 l/m 0,2 km/h (0 Bft) W 281 5 min 0,000 mm 2,1 UV-I 451 W/m -3,3 C 2,8 C 4,8 km/h (1 Bft)
01.03.2016 11:40 3,3 C 63 % 1020,1 hPa 0,0 l/m 0,8 km/h (0 Bft) S-SO 163 5 min 0,000 mm 2,2 UV-I 468 W/m -3,1 C 3,3 C 6,4 km/h (2 Bft)
01.03.2016 11:45 2,8 C 64 % 1020,1 hPa 0,0 l/m 6,5 km/h (2 Bft) SO 137 5 min 0,000 mm 2,2 UV-I 476 W/m -3,3 C 2,7 C 19,3 km/h (3 Bft)
01.03.2016 11:50 3,1 C 63 % 1020,0 hPa 0,0 l/m 2,3 km/h (1 Bft) S-SW 200 5 min 0,000 mm 2,3 UV-I 476 W/m -3,2 C 3,1 C 9,7 km/h (2 Bft)
01.03.2016 11:55 2,9 C 65 % 1020,0 hPa 0,0 l/m 0,4 km/h (0 Bft) S-SO 148 5 min 0,000 mm 2,2 UV-I 446 W/m -3,0 C 2,9 C 6,4 km/h (2 Bft)
01.03.2016 12:00 3,6 C 64 % 1020,0 hPa 0,0 l/m 1,5 km/h (1 Bft) S-SW 211 5 min 0,000 mm 2,2 UV-I 447 W/m -2,6 C 3,6 C 11,3 km/h (2 Bft)
01.03.2016 12:05 3,8 C 61 % 1020,0 hPa 0,0 l/m 1,0 km/h (0 Bft) S 188 5 min 0,178 mm 2,2 UV-I 450 W/m -3,0 C 3,8 C 6,4 km/h (2 Bft)
01.03.2016 12:10 3,3 C 62 % 1019,9 hPa 0,0 l/m 2,4 km/h (1 Bft) S 185 5 min 0,000 mm 2,2 UV-I 420 W/m -3,3 C 3,3 C 12,9 km/h (3 Bft)
01.03.2016 12:15 2,7 C 65 % 1019,7 hPa 0,0 l/m 7,4 km/h (2 Bft) O-SO 111 5 min 0,000 mm 2,3 UV-I 438 W/m -3,2 C 1,7 C 14,5 km/h (3 Bft)
01.03.2016 12:20 3,0 C 64 % 1019,7 hPa 0,0 l/m 4,3 km/h (1 Bft) S-SO 159 5 min 0,000 mm 2,4 UV-I 485 W/m -3,1 C 3,0 C 12,9 km/h (3 Bft)
01.03.2016 12:25 3,0 C 63 % 1019,7 hPa 0,0 l/m 8,1 km/h (2 Bft) S-SO 161 5 min 0,000 mm 2,4 UV-I 488 W/m -3,3 C 1,4 C 14,5 km/h (3 Bft)
01.03.2016 12:30 3,4 C 65 % 1019,5 hPa 0,0 l/m 5,5 km/h (1 Bft) S-SW 210 5 min 0,000 mm 2,4 UV-I 490 W/m -2,5 C 3,4 C 14,5 km/h (3 Bft)
01.03.2016 12:35 3,9 C 62 % 1019,4 hPa 0,0 l/m 3,4 km/h (1 Bft) S-SO 163 5 min 0,000 mm 2,4 UV-I 490 W/m -2,7 C 3,9 C 11,3 km/h (2 Bft)
01.03.2016 12:40 3,8 C 63 % 1019,3 hPa 0,0 l/m 4,2 km/h (1 Bft) S 181 5 min 0,000 mm 2,4 UV-I 505 W/m -2,6 C 3,8 C 14,5 km/h (3 Bft)
01.03.2016 12:45 3,8 C 60 % 1019,2 hPa 0,0 l/m 2,6 km/h (1 Bft) S-SW 198 5 min 0,000 mm 2,5 UV-I 514 W/m -3,2 C 3,8 C 11,3 km/h (2 Bft)
01.03.2016 12:50 4,6 C 60 % 1019,1 hPa 0,0 l/m 0,0 km/h (0 Bft) S-SW 211 5 min 0,000 mm 2,5 UV-I 518 W/m -2,5 C 4,6 C 0,0 km/h (0 Bft)
01.03.2016 12:55 4,3 C 59 % 1019,1 hPa 0,0 l/m 2,0 km/h (1 Bft) W-SW 248 5 min 0,000 mm 2,4 UV-I 496 W/m -3,0 C 4,3 C 8,0 km/h (2 Bft)
01.03.2016 13:00 4,4 C 59 % 1019,0 hPa 0,0 l/m 0,3 km/h (0 Bft) SO 124 5 min 0,000 mm 2,4 UV-I 495 W/m -2,9 C 4,4 C 3,2 km/h (1 Bft)
01.03.2016 13:05 4,3 C 59 % 1018,9 hPa 0,0 l/m 0,2 km/h (0 Bft) W-NW 292 5 min 0,203 mm 2,3 UV-I 463 W/m -3,0 C 4,3 C 6,4 km/h (2 Bft)
01.03.2016 13:10 4,5 C 58 % 1018,8 hPa 0,0 l/m 1,8 km/h (1 Bft) SW 229 5 min 0,000 mm 2,3 UV-I 472 W/m -3,0 C 4,5 C 9,7 km/h (2 Bft)
01.03.2016 13:15 5,1 C 56 % 1018,6 hPa 0,0 l/m 1,0 km/h (0 Bft) S 183 5 min 0,000 mm 2,3 UV-I 495 W/m -2,9 C 5,1 C 8,0 km/h (2 Bft)
01.03.2016 13:20 4,7 C 57 % 1018,4 hPa 0,0 l/m 2,1 km/h (1 Bft) SW 225 5 min 0,000 mm 2,3 UV-I 471 W/m -3,1 C 4,7 C 11,3 km/h (2 Bft)
01.03.2016 13:25 4,7 C 58 % 1018,2 hPa 0,0 l/m 3,0 km/h (1 Bft) SW 215 5 min 0,000 mm 2,2 UV-I 426 W/m -2,8 C 4,7 C 11,3 km/h (2 Bft)
01.03.2016 13:30 4,8 C 57 % 1018,2 hPa 0,0 l/m 1,2 km/h (1 Bft) W-NW 288 5 min 0,000 mm 2,1 UV-I 405 W/m -3,0 C 4,8 C 11,3 km/h (2 Bft)
01.03.2016 13:35 4,5 C 58 % 1018,1 hPa 0,0 l/m 1,5 km/h (1 Bft) S-SW 192 5 min 0,000 mm 2,0 UV-I 386 W/m -3,0 C 4,5 C 8,0 km/h (2 Bft)
01.03.2016 13:40 5,0 C 57 % 1018,0 hPa 0,0 l/m 1,4 km/h (1 Bft) S-SW 209 5 min 0,000 mm 1,9 UV-I 371 W/m -2,8 C 5,0 C 9,7 km/h (2 Bft)
01.03.2016 13:45 4,8 C 56 % 1018,0 hPa 0,0 l/m 0,7 km/h (0 Bft) S 189 5 min 0,000 mm 1,9 UV-I 377 W/m -3,2 C 4,8 C 4,8 km/h (1 Bft)
01.03.2016 13:50 4,4 C 57 % 1017,9 hPa 0,0 l/m 4,8 km/h (1 Bft) O 93 5 min 0,000 mm 1,9 UV-I 376 W/m -3,4 C 4,4 C 12,9 km/h (3 Bft)
01.03.2016 13:55 4,5 C 57 % 1017,9 hPa 0,0 l/m 2,7 km/h (1 Bft) SO 133 5 min 0,000 mm 1,9 UV-I 368 W/m -3,3 C 4,5 C 14,5 km/h (3 Bft)
01.03.2016 14:00 4,4 C 59 % 1017,8 hPa 0,0 l/m 6,2 km/h (2 Bft) S-SW 199 5 min 0,000 mm 1,8 UV-I 349 W/m -2,9 C 4,4 C 14,5 km/h (3 Bft)
01.03.2016 14:05 4,7 C 57 % 1017,7 hPa 0,0 l/m 2,8 km/h (1 Bft) S 180 5 min 0,178 mm 1,8 UV-I 344 W/m -3,1 C 4,7 C 9,7 km/h (2 Bft)
01.03.2016 14:10 5,3 C 55 % 1017,6 hPa 0,0 l/m 1,2 km/h (1 Bft) W-SW 258 5 min 0,000 mm 1,7 UV-I 334 W/m -3,0 C 5,3 C 11,3 km/h (2 Bft)
01.03.2016 14:15 5,3 C 55 % 1017,6 hPa 0,0 l/m 3,4 km/h (1 Bft) SW 216 5 min 0,000 mm 1,7 UV-I 328 W/m -3,0 C 5,3 C 14,5 km/h (3 Bft)
01.03.2016 14:20 4,8 C 55 % 1017,4 hPa 0,0 l/m 3,1 km/h (1 Bft) S 170 5 min 0,000 mm 1,6 UV-I 328 W/m -3,5 C 4,8 C 17,7 km/h (3 Bft)
01.03.2016 14:25 4,5 C 56 % 1017,2 hPa 0,0 l/m 8,6 km/h (2 Bft) SO 144 5 min 0,000 mm 1,6 UV-I 328 W/m -3,5 C 2,6 C 16,1 km/h (3 Bft)
01.03.2016 14:30 4,7 C 56 % 1017,2 hPa 0,0 l/m 6,9 km/h (2 Bft) S-SO 159 5 min 0,000 mm 1,6 UV-I 316 W/m -3,3 C 4,3 C 14,5 km/h (3 Bft)
01.03.2016 14:35 4,5 C 56 % 1017,2 hPa 0,0 l/m 6,1 km/h (2 Bft) S 180 5 min 0,000 mm 1,5 UV-I 301 W/m -3,5 C 4,5 C 14,5 km/h (3 Bft)
01.03.2016 14:40 4,8 C 55 % 1017,0 hPa 0,0 l/m 2,8 km/h (1 Bft) S 182 5 min 0,000 mm 1,5 UV-I 287 W/m -3,5 C 4,8 C 9,7 km/h (2 Bft)
01.03.2016 14:45 4,9 C 55 % 1017,0 hPa 0,0 l/m 0,8 km/h (0 Bft) W-SW 241 5 min 0,000 mm 1,4 UV-I 282 W/m -3,4 C 4,9 C 8,0 km/h (2 Bft)
01.03.2016 14:50 4,9 C 56 % 1016,9 hPa 0,0 l/m 1,2 km/h (1 Bft) S-SW 211 5 min 0,000 mm 1,3 UV-I 273 W/m -3,1 C 4,9 C 9,7 km/h (2 Bft)
01.03.2016 14:55 4,8 C 53 % 1016,9 hPa 0,0 l/m 5,0 km/h (1 Bft) W-SW 245 5 min 0,000 mm 1,3 UV-I 247 W/m -4,0 C 4,8 C 14,5 km/h (3 Bft)
01.03.2016 15:00 4,8 C 53 % 1016,8 hPa 0,0 l/m 4,5 km/h (1 Bft) SW 229 0 min 0,000 mm 1,2 UV-I 226 W/m -4,0 C 4,8 C 14,5 km/h (3 Bft)
01.03.2016 15:05 4,7 C 53 % 1016,8 hPa 0,0 l/m 2,2 km/h (1 Bft) S 176 0 min 0,127 mm 1,1 UV-I 211 W/m -4,0 C 4,7 C 12,9 km/h (3 Bft)
01.03.2016 15:10 4,9 C 53 % 1016,7 hPa 0,0 l/m 1,5 km/h (1 Bft) S-SO 167 0 min 0,000 mm 1,1 UV-I 196 W/m -3,9 C 4,9 C 11,3 km/h (2 Bft)
01.03.2016 15:15 4,7 C 52 % 1016,7 hPa 0,0 l/m 4,3 km/h (1 Bft) SW 231 0 min 0,000 mm 1,0 UV-I 179 W/m -4,3 C 4,7 C 16,1 km/h (3 Bft)
01.03.2016 15:20 4,5 C 53 % 1016,7 hPa 0,0 l/m 4,2 km/h (1 Bft) S-SW 207 0 min 0,000 mm 0,9 UV-I 163 W/m -4,2 C 4,5 C 11,3 km/h (2 Bft)
01.03.2016 15:25 4,5 C 53 % 1016,7 hPa 0,0 l/m 5,2 km/h (1 Bft) S 182 0 min 0,000 mm 0,9 UV-I 153 W/m -4,2 C 4,5 C 14,5 km/h (3 Bft)
01.03.2016 15:30 4,5 C 54 % 1016,7 hPa 0,0 l/m 1,7 km/h (1 Bft) S-SW 206 0 min 0,000 mm 0,8 UV-I 141 W/m -4,0 C 4,5 C 11,3 km/h (2 Bft)
01.03.2016 15:35 4,6 C 53 % 1016,7 hPa 0,0 l/m 0,5 km/h (0 Bft) SW 236 0 min 0,000 mm 0,7 UV-I 126 W/m -4,1 C 4,6 C 9,7 km/h (2 Bft)
01.03.2016 15:40 4,6 C 52 % 1016,6 hPa 0,0 l/m 0,6 km/h (0 Bft) W-SW 257 0 min 0,000 mm 0,6 UV-I 113 W/m -4,4 C 4,6 C 6,4 km/h (2 Bft)
01.03.2016 15:45 4,6 C 52 % 1016,6 hPa 0,0 l/m 1,1 km/h (1 Bft) W-NW 290 0 min 0,000 mm 0,6 UV-I 102 W/m -4,4 C 4,6 C 8,0 km/h (2 Bft)
01.03.2016 15:50 4,6 C 52 % 1016,5 hPa 0,0 l/m 1,1 km/h (1 Bft) W-SW 243 0 min 0,000 mm 0,6 UV-I 96 W/m -4,4 C 4,6 C 8,0 km/h (2 Bft)
01.03.2016 15:55 4,7 C 52 % 1016,5 hPa 0,0 l/m 1,1 km/h (1 Bft) SW 218 0 min 0,000 mm 0,5 UV-I 91 W/m -4,3 C 4,7 C 6,4 km/h (2 Bft)
01.03.2016 16:00 4,7 C 51 % 1016,3 hPa 0,0 l/m 0,4 km/h (0 Bft) S-SW 205 0 min 0,000 mm 0,5 UV-I 83 W/m -4,6 C 4,7 C 4,8 km/h (1 Bft)
01.03.2016 16:05 4,8 C 51 % 1016,3 hPa 0,0 l/m 0,6 km/h (0 Bft) SW 225 0 min 0,076 mm 0,5 UV-I 77 W/m -4,5 C 4,8 C 8,0 km/h (2 Bft)
01.03.2016 16:10 4,8 C 51 % 1016,2 hPa 0,0 l/m 0,7 km/h (0 Bft) SW 222 0 min 0,000 mm 0,0 UV-I 71 W/m -4,5 C 4,8 C 6,4 km/h (2 Bft)
01.03.2016 16:15 4,8 C 50 % 1016,1 hPa 0,0 l/m 1,1 km/h (1 Bft) W-SW 253 0 min 0,000 mm 0,0 UV-I 67 W/m -4,7 C 4,8 C 6,4 km/h (2 Bft)
01.03.2016 16:20 4,9 C 49 % 1016,1 hPa 0,0 l/m 1,0 km/h (0 Bft) SW 235 0 min 0,000 mm 0,0 UV-I 59 W/m -4,9 C 4,9 C 8,0 km/h (2 Bft)
01.03.2016 16:25 4,9 C 49 % 1015,9 hPa 0,0 l/m 1,6 km/h (1 Bft) SW 218 0 min 0,000 mm 0,0 UV-I 53 W/m -4,9 C 4,9 C 11,3 km/h (2 Bft)
01.03.2016 16:30 4,9 C 49 % 1015,9 hPa 0,0 l/m 0,6 km/h (0 Bft) W-SW 246 0 min 0,000 mm 0,0 UV-I 51 W/m -4,9 C 4,9 C 9,7 km/h (2 Bft)
01.03.2016 16:35 4,9 C 47 % 1015,8 hPa 0,0 l/m 2,5 km/h (1 Bft) S-SW 200 0 min 0,000 mm 0,0 UV-I 51 W/m -5,4 C 4,9 C 9,7 km/h (2 Bft)
01.03.2016 16:40 4,9 C 48 % 1015,8 hPa 0,0 l/m 1,5 km/h (1 Bft) W-NW 290 0 min 0,000 mm 0,0 UV-I 48 W/m -5,2 C 4,9 C 8,0 km/h (2 Bft)
01.03.2016 16:45 4,9 C 46 % 1015,8 hPa 0,0 l/m 2,2 km/h (1 Bft) SW 232 0 min 0,000 mm 0,0 UV-I 41 W/m -5,7 C 4,9 C 9,7 km/h (2 Bft)
01.03.2016 16:50 4,9 C 46 % 1015,8 hPa 0,0 l/m 2,3 km/h (1 Bft) W-SW 244 0 min 0,000 mm 0,0 UV-I 39 W/m -5,7 C 4,9 C 12,9 km/h (3 Bft)
01.03.2016 16:55 4,9 C 46 % 1015,7 hPa 0,0 l/m 1,6 km/h (1 Bft) SW 233 0 min 0,000 mm 0,0 UV-I 37 W/m -5,7 C 4,9 C 9,7 km/h (2 Bft)
01.03.2016 17:00 5,0 C 45 % 1015,6 hPa 0,0 l/m 3,0 km/h (1 Bft) S-SW 197 0 min 0,000 mm 0,0 UV-I 33 W/m -5,9 C 5,0 C 9,7 km/h (2 Bft)
01.03.2016 17:05 5,0 C 45 % 1015,5 hPa 0,0 l/m 1,5 km/h (1 Bft) W-SW 248 0 min 0,026 mm 0,0 UV-I 29 W/m -5,9 C 5,0 C 9,7 km/h (2 Bft)
01.03.2016 17:10 5,0 C 45 % 1015,5 hPa 0,0 l/m 3,6 km/h (1 Bft) W 271 0 min 0,000 mm 0,0 UV-I 26 W/m -5,9 C 5,0 C 17,7 km/h (3 Bft)
01.03.2016 17:15 4,9 C 44 % 1015,4 hPa 0,0 l/m 5,6 km/h (1 Bft) W-NW 284 0 min 0,000 mm 0,0 UV-I 23 W/m -6,3 C 4,9 C 16,1 km/h (3 Bft)
01.03.2016 17:20 4,9 C 45 % 1015,3 hPa 0,0 l/m 6,5 km/h (2 Bft) W-SW 239 0 min 0,000 mm 0,0 UV-I 19 W/m -6,0 C 4,8 C 17,7 km/h (3 Bft)
01.03.2016 17:25 4,9 C 45 % 1015,2 hPa 0,0 l/m 4,0 km/h (1 Bft) S-SW 198 0 min 0,000 mm 0,0 UV-I 17 W/m -6,0 C 4,9 C 9,7 km/h (2 Bft)
01.03.2016 17:30 4,8 C 46 % 1015,1 hPa 0,0 l/m 5,5 km/h (1 Bft) W 265 0 min 0,000 mm 0,0 UV-I 13 W/m -5,8 C 4,8 C 16,1 km/h (3 Bft)
01.03.2016 17:35 4,8 C 47 % 1015,0 hPa 0,0 l/m 6,8 km/h (2 Bft) S-SW 194 0 min 0,000 mm 0,0 UV-I 10 W/m -5,5 C 4,5 C 14,5 km/h (3 Bft)
01.03.2016 17:40 4,6 C 51 % 1014,8 hPa 0,0 l/m 10,5 km/h (2 Bft) W-SW 248 0 min 0,000 mm 0,0 UV-I 8 W/m -4,6 C 1,3 C 24,1 km/h (4 Bft)
01.03.2016 17:45 4,4 C 53 % 1014,8 hPa 0,0 l/m 9,8 km/h (2 Bft) W-NW 300 0 min 0,000 mm 0,0 UV-I 6 W/m -4,3 C 1,6 C 19,3 km/h (3 Bft)
01.03.2016 17:50 4,3 C 54 % 1014,8 hPa 0,0 l/m 6,2 km/h (2 Bft) W-SW 241 0 min 0,000 mm 0,0 UV-I 2 W/m -4,2 C 4,3 C 16,1 km/h (3 Bft)
01.03.2016 17:55 4,2 C 55 % 1014,8 hPa 0,0 l/m 8,5 km/h (2 Bft) W-SW 241 0 min 0,000 mm 0,0 UV-I 0 W/m -4,0 C 2,3 C 16,1 km/h (3 Bft)
01.03.2016 18:00 4,2 C 57 % 1014,9 hPa 0,0 l/m 7,8 km/h (2 Bft) SW 223 0 min 0,000 mm 0,0 UV-I 0 W/m -3,5 C 2,9 C 17,7 km/h (3 Bft)
01.03.2016 18:05 3,7 C 66 % 1015,0 hPa 0,0 l/m 13,0 km/h (3 Bft) W-NW 283 0 min 0,051 mm 0,0 UV-I 0 W/m -2,0 C -1,4 C 24,1 km/h (4 Bft)
01.03.2016 18:10 2,9 C 73 % 1015,2 hPa 0,0 l/m 13,6 km/h (3 Bft) W-NW 288 0 min 0,000 mm 0,0 UV-I 0 W/m -1,5 C -2,7 C 27,4 km/h (4 Bft)
01.03.2016 18:15 2,4 C 76 % 1015,3 hPa 0,0 l/m 11,2 km/h (2 Bft) W 269 0 min 0,000 mm 0,0 UV-I 0 W/m -1,4 C -1,7 C 22,5 km/h (4 Bft)
01.03.2016 18:20 2,2 C 78 % 1015,1 hPa 0,0 l/m 7,4 km/h (2 Bft) SW 232 0 min 0,000 mm 0,0 UV-I 0 W/m -1,2 C 1,2 C 17,7 km/h (3 Bft)
01.03.2016 18:25 2,1 C 79 % 1015,1 hPa 0,0 l/m 8,4 km/h (2 Bft) W 261 0 min 0,000 mm 0,0 UV-I 0 W/m -1,2 C 0,2 C 16,1 km/h (3 Bft)
01.03.2016 18:30 2,0 C 80 % 1015,0 hPa 0,0 l/m 7,5 km/h (2 Bft) W 274 0 min 0,000 mm 0,0 UV-I 0 W/m -1,1 C 0,9 C 14,5 km/h (3 Bft)
01.03.2016 18:35 1,9 C 81 % 1014,8 hPa 0,0 l/m 4,6 km/h (1 Bft) W-SW 249 0 min 0,000 mm 0,0 UV-I 0 W/m -1,0 C 1,9 C 9,7 km/h (2 Bft)
01.03.2016 18:40 1,9 C 81 % 1014,7 hPa 0,0 l/m 5,3 km/h (1 Bft) SW 232 0 min 0,000 mm 0,0 UV-I 0 W/m -1,0 C 1,9 C 11,3 km/h (2 Bft)
01.03.2016 18:45 1,8 C 82 % 1014,6 hPa 0,0 l/m 8,3 km/h (2 Bft) W 268 0 min 0,000 mm 0,0 UV-I 0 W/m -0,9 C -0,0 C 19,3 km/h (3 Bft)
01.03.2016 18:50 1,8 C 83 % 1014,5 hPa 0,0 l/m 6,6 km/h (2 Bft) S-SW 201 0 min 0,000 mm 0,0 UV-I 0 W/m -0,8 C 1,6 C 14,5 km/h (3 Bft)
01.03.2016 18:55 1,7 C 83 % 1014,5 hPa 0,0 l/m 4,5 km/h (1 Bft) SW 227 0 min 0,000 mm 0,0 UV-I 0 W/m -0,9 C 1,7 C 12,9 km/h (3 Bft)
01.03.2016 19:00 1,7 C 84 % 1014,3 hPa 0,0 l/m 1,5 km/h (1 Bft) W-SW 242 0 min 0,000 mm 0,0 UV-I 0 W/m -0,7 C 1,7 C 11,3 km/h (2 Bft)
01.03.2016 19:05 1,7 C 85 % 1014,4 hPa 0,0 l/m 2,8 km/h (1 Bft) S-SW 211 0 min 0,025 mm 0,0 UV-I 0 W/m -0,5 C 1,7 C 11,3 km/h (2 Bft)
01.03.2016 19:10 1,6 C 85 % 1014,2 hPa 0,0 l/m 1,4 km/h (1 Bft) S-SW 196 0 min 0,000 mm 0,0 UV-I 0 W/m -0,6 C 1,6 C 8,0 km/h (2 Bft)
01.03.2016 19:15 1,6 C 86 % 1014,2 hPa 0,0 l/m 6,0 km/h (2 Bft) W 260 0 min 0,000 mm 0,0 UV-I 0 W/m -0,5 C 1,6 C 14,5 km/h (3 Bft)
01.03.2016 19:20 1,6 C 86 % 1014,2 hPa 0,0 l/m 4,4 km/h (1 Bft) W-SW 250 0 min 0,000 mm 0,0 UV-I 0 W/m -0,5 C 1,6 C 12,9 km/h (3 Bft)
01.03.2016 19:25 1,5 C 87 % 1014,3 hPa 0,0 l/m 5,4 km/h (1 Bft) W 271 0 min 0,000 mm 0,0 UV-I 0 W/m -0,4 C 1,5 C 11,3 km/h (2 Bft)
01.03.2016 19:30 1,4 C 87 % 1014,3 hPa 0,0 l/m 5,8 km/h (2 Bft) W-SW 251 0 min 0,000 mm 0,0 UV-I 0 W/m -0,5 C 1,4 C 12,9 km/h (3 Bft)
01.03.2016 19:35 1,4 C 88 % 1014,1 hPa 0,0 l/m 4,2 km/h (1 Bft) W 268 0 min 0,000 mm 0,0 UV-I 0 W/m -0,4 C 1,4 C 14,5 km/h (3 Bft)
01.03.2016 19:40 1,3 C 88 % 1014,0 hPa 0,0 l/m 6,0 km/h (2 Bft) SW 215 0 min 0,000 mm 0,0 UV-I 0 W/m -0,5 C 1,3 C 17,7 km/h (3 Bft)
01.03.2016 19:45 1,3 C 88 % 1013,9 hPa 0,0 l/m 2,9 km/h (1 Bft) W-SW 243 0 min 0,000 mm 0,0 UV-I 0 W/m -0,5 C 1,3 C 11,3 km/h (2 Bft)
01.03.2016 19:50 1,4 C 88 % 1013,9 hPa 0,0 l/m 5,8 km/h (2 Bft) W-SW 238 0 min 0,000 mm 0,0 UV-I 0 W/m -0,4 C 1,4 C 14,5 km/h (3 Bft)
01.03.2016 19:55 1,4 C 88 % 1013,8 hPa 0,0 l/m 3,3 km/h (1 Bft) SW 221 0 min 0,000 mm 0,0 UV-I 0 W/m -0,4 C 1,4 C 8,0 km/h (2 Bft)
01.03.2016 20:00 1,3 C 88 % 1013,7 hPa 0,0 l/m 2,0 km/h (1 Bft) SW 234 0 min 0,000 mm 0,0 UV-I 0 W/m -0,5 C 1,3 C 17,7 km/h (3 Bft)
01.03.2016 20:05 1,3 C 88 % 1013,7 hPa 0,0 l/m 0,1 km/h (0 Bft) W-SW 240 0 min 0,000 mm 0,0 UV-I 0 W/m -0,5 C 1,3 C 1,6 km/h (1 Bft)
01.03.2016 20:10 1,3 C 89 % 1013,6 hPa 0,0 l/m 0,9 km/h (0 Bft) W 275 0 min 0,000 mm 0,0 UV-I 0 W/m -0,3 C 1,3 C 8,0 km/h (2 Bft)
01.03.2016 20:15 1,3 C 88 % 1013,5 hPa 0,0 l/m 0,8 km/h (0 Bft) W-NW 298 0 min 0,000 mm 0,0 UV-I 0 W/m -0,5 C 1,3 C 6,4 km/h (2 Bft)
01.03.2016 20:20 1,3 C 88 % 1013,4 hPa 0,0 l/m 1,7 km/h (1 Bft) O-SO 109 0 min 0,000 mm 0,0 UV-I 0 W/m -0,5 C 1,3 C 9,7 km/h (2 Bft)
01.03.2016 20:25 1,2 C 88 % 1013,4 hPa 0,0 l/m 0,2 km/h (0 Bft) S 171 0 min 0,000 mm 0,0 UV-I 0 W/m -0,6 C 1,2 C 3,2 km/h (1 Bft)
01.03.2016 20:30 1,2 C 89 % 1013,4 hPa 0,0 l/m 0,7 km/h (0 Bft) S 184 0 min 0,000 mm 0,0 UV-I 0 W/m -0,4 C 1,2 C 8,0 km/h (2 Bft)
01.03.2016 20:35 1,2 C 89 % 1013,3 hPa 0,0 l/m 1,1 km/h (1 Bft) W-SW 246 0 min 0,000 mm 0,0 UV-I 0 W/m -0,4 C 1,2 C 4,8 km/h (1 Bft)
01.03.2016 20:40 1,2 C 89 % 1013,2 hPa 0,0 l/m 0,0 km/h (0 Bft) W-SW 246 0 min 0,000 mm 0,0 UV-I 0 W/m -0,4 C 1,2 C 0,0 km/h (0 Bft)
01.03.2016 20:45 1,2 C 89 % 1013,2 hPa 0,0 l/m 0,3 km/h (0 Bft) S-SW 206 0 min 0,000 mm 0,0 UV-I 0 W/m -0,4 C 1,2 C 4,8 km/h (1 Bft)
01.03.2016 20:50 1,2 C 89 % 1013,1 hPa 0,0 l/m 3,0 km/h (1 Bft) O-NO 70 0 min 0,000 mm 0,0 UV-I 0 W/m -0,4 C 1,2 C 11,3 km/h (2 Bft)
01.03.2016 20:55 1,2 C 90 % 1013,1 hPa 0,0 l/m 1,1 km/h (1 Bft) W 279 0 min 0,000 mm 0,0 UV-I 0 W/m -0,3 C 1,2 C 4,8 km/h (1 Bft)
01.03.2016 21:00 1,2 C 89 % 1013,1 hPa 0,0 l/m 0,2 km/h (0 Bft) W-NW 282 0 min 0,000 mm 0,0 UV-I 0 W/m -0,4 C 1,2 C 11,3 km/h (2 Bft)
01.03.2016 21:05 1,2 C 90 % 1013,1 hPa 0,0 l/m 1,0 km/h (0 Bft) SW 222 0 min 0,000 mm 0,0 UV-I 0 W/m -0,3 C 1,2 C 6,4 km/h (2 Bft)
01.03.2016 21:10 1,2 C 90 % 1013,0 hPa 0,0 l/m 0,0 km/h (0 Bft) NW 311 0 min 0,000 mm 0,0 UV-I 0 W/m -0,3 C 1,2 C 0,0 km/h (0 Bft)
01.03.2016 21:15 1,2 C 90 % 1013,0 hPa 0,0 l/m 0,3 km/h (0 Bft) NO 44 0 min 0,000 mm 0,0 UV-I 0 W/m -0,3 C 1,2 C 6,4 km/h (2 Bft)
01.03.2016 21:20 1,2 C 90 % 1013,0 hPa 0,0 l/m 0,9 km/h (0 Bft) W 276 0 min 0,000 mm 0,0 UV-I 0 W/m -0,3 C 1,2 C 4,8 km/h (1 Bft)
01.03.2016 21:25 1,2 C 90 % 1012,9 hPa 0,0 l/m 0,4 km/h (0 Bft) O 96 0 min 0,000 mm 0,0 UV-I 0 W/m -0,3 C 1,2 C 4,8 km/h (1 Bft)
01.03.2016 21:30 1,2 C 90 % 1012,9 hPa 0,0 l/m 0,0 km/h (0 Bft) O 96 0 min 0,000 mm 0,0 UV-I 0 W/m -0,3 C 1,2 C 0,0 km/h (0 Bft)
01.03.2016 21:35 1,2 C 91 % 1012,8 hPa 0,0 l/m 0,0 km/h (0 Bft) O 96 0 min 0,000 mm 0,0 UV-I 0 W/m -0,1 C 1,2 C 0,0 km/h (0 Bft)
01.03.2016 21:40 1,2 C 91 % 1012,6 hPa 0,0 l/m 0,4 km/h (0 Bft) S-SO 159 0 min 0,000 mm 0,0 UV-I 0 W/m -0,1 C 1,2 C 6,4 km/h (2 Bft)
01.03.2016 21:45 1,2 C 90 % 1012,5 hPa 0,0 l/m 0,0 km/h (0 Bft) S-SO 168 0 min 0,000 mm 0,0 UV-I 0 W/m -0,3 C 1,2 C 1,6 km/h (1 Bft)
01.03.2016 21:50 1,2 C 91 % 1012,5 hPa 0,0 l/m 0,0 km/h (0 Bft) N-NO 20 0 min 0,000 mm 0,0 UV-I 0 W/m -0,1 C 1,2 C 0,0 km/h (0 Bft)
01.03.2016 21:55 1,2 C 91 % 1012,4 hPa 0,0 l/m 0,5 km/h (0 Bft) SW 215 0 min 0,000 mm 0,0 UV-I 0 W/m -0,1 C 1,2 C 8,0 km/h (2 Bft)
01.03.2016 22:00 1,2 C 91 % 1012,4 hPa 0,0 l/m 0,0 km/h (0 Bft) SW 215 0 min 0,000 mm 0,0 UV-I 0 W/m -0,1 C 1,2 C 0,0 km/h (0 Bft)
01.03.2016 22:05 1,2 C 91 % 1012,3 hPa 0,0 l/m 0,0 km/h (0 Bft) O-SO 114 0 min 0,000 mm 0,0 UV-I 0 W/m -0,1 C 1,2 C 0,0 km/h (0 Bft)
01.03.2016 22:10 1,2 C 91 % 1012,2 hPa 0,0 l/m 0,4 km/h (0 Bft) O-SO 115 0 min 0,000 mm 0,0 UV-I 0 W/m -0,1 C 1,2 C 4,8 km/h (1 Bft)
01.03.2016 22:15 1,2 C 92 % 1012,1 hPa 0,0 l/m 0,6 km/h (0 Bft) O 92 0 min 0,000 mm 0,0 UV-I 0 W/m 0,0 C 1,2 C 4,8 km/h (1 Bft)
01.03.2016 22:20 1,2 C 91 % 1012,1 hPa 0,0 l/m 0,8 km/h (0 Bft) N 360 0 min 0,000 mm 0,0 UV-I 0 W/m -0,1 C 1,2 C 8,0 km/h (2 Bft)
01.03.2016 22:25 1,2 C 92 % 1012,0 hPa 0,0 l/m 0,0 km/h (0 Bft) SO 136 0 min 0,000 mm 0,0 UV-I 0 W/m 0,0 C 1,2 C 0,0 km/h (0 Bft)
01.03.2016 22:30 1,2 C 92 % 1012,0 hPa 0,0 l/m 0,5 km/h (0 Bft) O 85 0 min 0,000 mm 0,0 UV-I 0 W/m 0,0 C 1,2 C 3,2 km/h (1 Bft)
01.03.2016 22:35 1,2 C 92 % 1011,9 hPa 0,0 l/m 0,2 km/h (0 Bft) S-SO 163 0 min 0,000 mm 0,0 UV-I 0 W/m 0,0 C 1,2 C 3,2 km/h (1 Bft)
01.03.2016 22:40 1,2 C 92 % 1011,8 hPa 0,0 l/m 0,1 km/h (0 Bft) S 182 0 min 0,000 mm 0,0 UV-I 0 W/m 0,0 C 1,2 C 3,2 km/h (1 Bft)
01.03.2016 22:45 1,2 C 92 % 1011,8 hPa 0,0 l/m 0,0 km/h (0 Bft) S-SW 194 0 min 0,000 mm 0,0 UV-I 0 W/m 0,0 C 1,2 C 0,0 km/h (0 Bft)
01.03.2016 22:50 1,3 C 92 % 1011,7 hPa 0,0 l/m 0,2 km/h (0 Bft) S-SO 167 0 min 0,000 mm 0,0 UV-I 0 W/m 0,1 C 1,3 C 4,8 km/h (1 Bft)
01.03.2016 22:55 1,3 C 92 % 1011,6 hPa 0,0 l/m 0,6 km/h (0 Bft) O-SO 122 0 min 0,000 mm 0,0 UV-I 0 W/m 0,1 C 1,3 C 6,4 km/h (2 Bft)
01.03.2016 23:00 1,2 C 92 % 1011,5 hPa 0,0 l/m 0,2 km/h (0 Bft) O-SO 103 0 min 0,000 mm 0,0 UV-I 0 W/m 0,0 C 1,2 C 4,8 km/h (1 Bft)
01.03.2016 23:05 1,3 C 93 % 1011,4 hPa 0,0 l/m 0,1 km/h (0 Bft) SO 141 0 min 0,000 mm 0,0 UV-I 0 W/m 0,3 C 1,3 C 1,6 km/h (1 Bft)
01.03.2016 23:10 1,3 C 93 % 1011,3 hPa 0,0 l/m 0,0 km/h (0 Bft) SO 139 0 min 0,000 mm 0,0 UV-I 0 W/m 0,3 C 1,3 C 0,0 km/h (0 Bft)
01.03.2016 23:15 1,3 C 93 % 1011,2 hPa 0,0 l/m 0,0 km/h (0 Bft) S-SO 158 0 min 0,000 mm 0,0 UV-I 0 W/m 0,3 C 1,3 C 0,0 km/h (0 Bft)
01.03.2016 23:20 1,3 C 93 % 1011,1 hPa 0,0 l/m 0,0 km/h (0 Bft) S 186 0 min 0,000 mm 0,0 UV-I 0 W/m 0,3 C 1,3 C 0,0 km/h (0 Bft)
01.03.2016 23:25 1,3 C 93 % 1011,1 hPa 0,0 l/m 2,3 km/h (1 Bft) S 188 0 min 0,000 mm 0,0 UV-I 0 W/m 0,3 C 1,3 C 11,3 km/h (2 Bft)
01.03.2016 23:30 1,3 C 93 % 1011,0 hPa 0,0 l/m 0,1 km/h (0 Bft) SO 128 0 min 0,000 mm 0,0 UV-I 0 W/m 0,3 C 1,3 C 1,6 km/h (1 Bft)
01.03.2016 23:35 1,3 C 93 % 1010,9 hPa 0,0 l/m 0,2 km/h (0 Bft) S-SO 148 0 min 0,000 mm 0,0 UV-I 0 W/m 0,3 C 1,3 C 3,2 km/h (1 Bft)
01.03.2016 23:40 1,4 C 93 % 1010,9 hPa 0,0 l/m 0,4 km/h (0 Bft) S 186 0 min 0,000 mm 0,0 UV-I 0 W/m 0,4 C 1,4 C 3,2 km/h (1 Bft)
01.03.2016 23:45 1,4 C 93 % 1010,8 hPa 0,0 l/m 0,0 km/h (0 Bft) SW 216 0 min 0,000 mm 0,0 UV-I 0 W/m 0,4 C 1,4 C 0,0 km/h (0 Bft)
01.03.2016 23:50 1,5 C 93 % 1010,7 hPa 0,0 l/m 0,7 km/h (0 Bft) W 268 0 min 0,000 mm 0,0 UV-I 0 W/m 0,5 C 1,5 C 9,7 km/h (2 Bft)
01.03.2016 23:55 1,5 C 93 % 1010,5 hPa 0,0 l/m 2,8 km/h (1 Bft) S-SW 202 0 min 0,000 mm 0,0 UV-I 0 W/m 0,5 C 1,5 C 9,7 km/h (2 Bft)
_ Min-Zeit 06:45 17:15 23:55 - 00:05 - - - - - - 06:45 06:45 00:05
Minimum _ -5,7 C 44 % 1010,5 hPa - 0,0 km/h (0 Bft) - - - - - - -7,5 C -5,7 C 0,0 km/h (0 Bft)
_ Max-Zeit 14:15 23:05 05:35 00:00 18:10 - - 08:00 13:05 12:45 12:50 23:50 14:10 18:10
Maximum _ 5,4 C 93 % 1022,4 hPa 0,0 l/m 13,6 km/h
W-NW (3 Bft)
- - 5 min 0,203 mm 2,5 UV-I 518 W/m 0,5 C 5,3 C 27,4 km/h
SW (4 Bft)
Durchschnitt _ 0,3 C 76 % 1018,4 hPa #0,0 l/m 1,6 km/h (1 Bft) W - #7:00 h #1,143 mm 1,5 UV-I 253 W/m -3,8 C 0,2 C 5,9 km/h (2 Bft)